sat.trackr.live / text

‹ back to catalog

YAOGAN-25 01C

NORAD 40340 · 2014-080C

PAYLOAD ACTIVE UNKNOWN

§ Identity

Operator
Country
PRC
Launch date
2014-12-10
Launch site
JSC
Launch vehicle
Mass (kg)
RCS (m²)
2.63

External: N2YO · Heavens-Above · Gunter

§ Orbital elements

Epoch: 2026-09-20T04:54:47.731104Z

Period
107.03 min
Inclination
63.3852°
Eccentricity
0.0375243
Mean motion
13.45356119 rev/d
Perigee alt
809.2 km
Apogee alt
1,369.6 km
Semi-major
7,467.5 km
B*
6.4526e-5
RAAN
66.4746°
Arg perigee
10.1263°
Mean anomaly
350.7058°
Rev number
57,853

§ Raw data

YAOGAN-25 01C1 40340U 14080C   26263.20471911 -.00000032  00000+0  64526-4 0  99902 40340  63.3852  66.4746 0375243  10.1263 350.7058 13.45356119578534

JSON: /api/v1/satellites/40340 · /tle

For live sub-satellite position, see the globe view (requires WebGL).

§ Visibility from observer

Set your observer location to see the next 7 days of passes ≥ 10°. The values pass through the URL so the page stays shareable.

No JS? Fill the form by hand. The geolocation button needs JavaScript.